User: anonymous   Login
Location: Berg
(47.2344°N, 9.5296°E)
Time: 04:09:26
(UTC+00:00)
Language:

Cosmos 2195 Rocket - Orbit

View from above orbital plane
View from above orbital plane
View from above satellite
View from above satellite

Ground track
Ground track

The orbit data is extracted from the following two-line orbital elements,

1 22007U 92036B   21101.93391740  .00000008  00000-0 -72131-5 0  9990
2 22007  82.9332 341.3816 0030639  13.3311 346.8649 13.77984223375303
Epoch (UTC): 11 April 2021 22:24:50
Eccentricity: 0.0030639
inclination: 82.9332°
perigee height: 948 km
apogee height: 993 km
right ascension of ascending node: 341.3816°
argument of perigee: 13.3311°
revolutions per day: 13.77984223
mean anomaly at epoch: 346.8649°
orbit number at epoch: 37530

The dashed part of the orbit path shows where the satellite is in the earth's shadow,  

DLR